Regional Weather Roundup
Issued by NWS Cleveland, OH

Home | Current Version | Previous Version | Graphics & Text | Print | Product List | Glossary On
Versions: 1 2 3 4 5 6 7 8 9 10 11 12 13 14 15 16 17 18 19 20 21 22 23 24 25 26 27 28 29 30 31 32 33 34 35 36 37 38 39 40 41 42 43 44 45 46 47 48 49 50
000
ASUS41 KCLE 300110
RWRCLE
OHIO REGIONAL WEATHER ROUNDUP
NATIONAL WEATHER SERVICE WILMINGTON, OH
900 PM EDT FRI APR 29 2016

NOTE: "FAIR" INDICATES FEW OR NO CLOUDS BELOW 12,000 FEET WITH NO
SIGNIFICANT WEATHER AND/OR OBSTRUCTIONS TO VISIBILITY.

OHZ001>008-015>018-024>027-034-035-043-044-300200-
   NORTHWEST OHIO

CITY           SKY/WX    TMP DP  RH WIND       PRES   REMARKS
DEFIANCE       CLOUDY    51  40  65 E10       30.12R
FINDLAY        CLOUDY    49  39  68 E9        30.11R
TOLEDO EXPRESS CLOUDY    48  39  71 E10       30.14R
TOLEDO EXEC    CLOUDY    47  39  74 NE9       30.15R
LIMA           CLOUDY    49  43  80 E12       30.11R
$$

OHZ009>014-019>023-028>033-038-089-300200-
   NORTHEAST OHIO

CITY           SKY/WX    TMP DP  RH WIND       PRES   REMARKS
CLE-HOPKINS    MOCLDY    43  38  82 N6        30.16R
CLE-LAKEFRONT  LGT RAIN  44  39  82 N10       30.13S
CUY CO. ARPT   CLOUDY    45  39  81 N7        30.14R
LORAIN-ELYRIA  CLOUDY    43  37  79 N3        30.15R
ASHTABULA      MOCLDY    41  35  79 W3        30.14R
AKRON-CANTON   CLOUDY    46  41  82 NW8       30.11R
WOOSTER        CLOUDY    43  40  89 NW8       30.13R
MANSFIELD      FAIR      42  40  92 N6        30.12R
YOUNGSTOWN     CLOUDY    42  39  89 N9        30.11R
$$

OHZ042-051>053-060>062-070>072-077>081-300200-
  SOUTHWEST OHIO

CITY           SKY/WX    TMP DP  RH WIND       PRES   REMARKS
CINC-COVINGTON CLOUDY    63  48  58 N7        30.05R
CINC-LUNKEN    FAIR      61  51  70 NE6       30.06R
HAMILTON       FAIR      60  50  69 NE6       30.08R
DAYTON         CLOUDY    52  46  80 N7        30.11R
WRIGHT-PAT AFB FAIR      55  49  82 N6        30.10R
DAYTON GENERAL FAIR      54  47  77 NE6       30.07R
WILMINGTON     FAIR      54  49  83 NE7       30.08R
$$

OHZ036-037-039>041-045>050-054>059-063>069-073>076-082>088-300200-
  CENTRAL AND SOUTHEAST OHIO

CITY           SKY/WX    TMP DP  RH WIND       PRES   REMARKS
COLUMBUS       CLOUDY    51  45  79 N6        30.09R
OSU AIRPORT    MOCLDY    50  45  83 N7        30.10R
BOLTON FIELD   FAIR      50  47  87 NE5       30.10R
RICKENBACK AFB MOCLDY    53  46  79 NE9       30.09R
NEWARK         CLOUDY    53  44  71 N5        30.09R
MARION         CLOUDY    48  42  80 NE6       30.12R
LANCASTER      CLOUDY    54  47  77 N8        30.09R
ZANESVILLE     FAIR      53  45  74 N6        30.10R
NEW PHILLY     CLOUDY    49  42  77 NW8       30.11R
$$




USA.gov is the U.S. government's official web portal to all federal, state and local government web resources and services.